Starlink 31967

operational
NORAD ID: 60021 Int'l Des: 2024-111 Owner: SPXS Country: US Constellation: starlink
LEOCIRCULAR

Starlink 31967について

説明を読み込み中...

リアルタイム位置

3D地球を読み込み中...

次回通過

高度履歴

Altitude vs Time

uPlot chart will show altitude changes over time

軌道要素

1 60021U 24111F 25259.46983854 -.00001538 00000-0 -39856-4 0 9992
2 60021 53.1591 164.5752 0001226 70.3293 289.7840 15.30176184 72373
Epoch: Sep 16, 2025 • Age: 16 hours

現在のステータス

高度 475.4 km
速度 7.63 km/s
衛星直下点 13.61°N, 80.23°W
打ち上げ日 Jun 8, 2024
運用期間 1.2 years
タイプ internet

技術仕様

分類 Payload
質量 730.00 kg
乾燥質量 700.00 kg
総質量 730.00 kg
長さ 0.30 m
直径 4.10 m
スパン 29.00 m
形状 Box + pan
製造者 SPXS
バスタイプ Starlink V2M
フェーズステータス In Orbit
所有者/国 SPXS/US

大規模コンステレーション

Loading constellations...